Погода Ростов Великий

Погода Ростов Великий : погода сейчас, прогноз погоды и архив. Всё, что Вы хотите узнать о погоде Ростов Великий!

Хотите узнать прогноз погоды Ростов Великий? Тогда Вам сюда: Погода Ростов Великий

Поиск расширенной информации на нашем сайте:

Другие новости

Новости СМИ2

Главная страница сайта

Новости сайта

02.10.2013

Напоминаем, что на нашем новом сайте вы можете получить высокодетализированные прогнозы погоды по пунктам России, СНГ и мира (включающие важные для авиации метеовеличины, такие как направление и скорость ветра, видимость, явления погоды, количество и форма облачности, нижняя и верхняя граница облачности), а также ознакомиться с разнообразными материалами по авиационной метеорологии и подборкой полезных ссылок на эту тему.

Сайт Метеоцентр.Азия посвящён разработке технологий оптимизации авиаметеорологического обслуживания, включая проектирование и перспективное создание нескольких автоматизированных авиаметеорологических систем:
- система выпуска высокодетальных прогностических карт явлений погоды для нижнего воздушного пространства по России и ближнему зарубежью;
- система верификации прогнозов TAF (выпускаемых синоптиками официальных АМСГ РФ и ближнего зарубежья) и AUTOTAF (выпускаемых сайтом Метеоцентр.Азия) - выявление ошибок, онлайн-сопоставление с фактической погодой METAR, автоматическое внесение коррективов в прогнозы при резком отклонении фактической погоды от прогноза, подсчёт оправдываемости прогнозов по элементам и в целом;
- система обработки, анализа и отображения авиаметеорологической информации для применения провайдерами метеорологической информации.


Погода Ростов Великий - сегодня

Время (UTC), дата Ветер
(°,м/с) 
Видим.   Явления Облачность Т
(°С)
Тd
(°С)
f(%) Тe
(°С)
Pmin
(гПа)
dP
(гПа)
Po
(мм)
O2
(г/м3)
Тmin Tmax R s Состояние
почвы
21 25.05.17 240 (ЮЗ) 50000 м    9/0 средняя 
[Ac trans]
+11 +9.3 89 +12  1009.8  0.8  748  288           
00 26.05.17 260 (З) 50000 м    6/0 средняя 
[Ac trans]
+10.1 +7.6 84 +10  1010.2  0.4  749  290           
03 26.05.17 270 (З) 50000 м    8/4 1000 м средняя, верхняя 
[Sc|Ac trans|Ci fib]
+10.6 +7.6 82 +11  1010.2  749  289  +9.2         
06 26.05.17 250 (З) 50000 м    3/1 600 м верхняя 
[Cu hum|Cs]
+15.9 +8.8 63 +17  1010.1  0.1  749  284           
09 26.05.17 240 (ЮЗ) 50000 м    8/6 600 м кучево-дожд., верхняя 
[Cb cap|Ci fib]
+17.7 +6.6 48 +19  1009.4  -0.7  748  282           
12 26.05.17 220 (ЮЗ) 50000 м    8/4 600 м верхняя 
[Cu med, cong|Ci fib]
+19.7 +6 41 +21  1007.7  -1.6  747  280           
21 26.05.17 290 (З) 50000 м    ясно 
+8.7 +7.7 93 +10  1009.4  0.6  748  291           
00 27.05.17 330 (СЗ) 50000 м    10/10 600 м 
[Sc]
+8.1 +7.1 93 +7  1010.2  0.8  749  292           
03 27.05.17 360 (С) 50000 м  {ливн. осадки}  9/9 600 м 
[Sc]
+8.3 +6.2 87 +7  1011.8  1.6  750  292  +7.4    0.3     
06 27.05.17 340 (С) 50000 м  {ливн. осадки}  3/3 600 м 
[Cu Sc]
+11.7 +3.7 58 +11  1013.2  1.4  751  290           
09 27.05.17 350 (С) 50000 м    8/8 600 м кучево-дожд. 
[Cb cap]
+14.1 +2 44 +14  1013.5  0.4  751  287           
18 27.05.17 340 (С) 50000 м    4/3 600 м средняя, верхняя 
[Sc|Ac trans|Ci fib]
+7.6 -1 54 +9  1015.7  0.5  753  295           
21 27.05.17 020 (С) 50000 м    10/0 средняя 
[Ac As]
+5.5 +0.3 69 +6  1015.8  -0.1  753  297           
00 28.05.17 010 (С) 50000 м    10/10 600 м кучево-дожд. 
[Cb cap]
+4.6 +0.4 74 +5  1016.1  0.2  753  298           
03 28.05.17 050 (СВ) 50000 м    10/10 600 м 
[Sc]
+5.3 -0.9 64 +5  1016.5  0.4  753  298  +4.4         
06 28.05.17 020 (С) 50000 м    8/6 600 м верхняя 
[Sc|Ci fib]
+8.5 -2.8 45 +9  1016.2  0.1  753  295           
09 28.05.17 010 (С) 50000 м    8/8 600 м 
[Sc]
+11 -5.1 32 +11  1016.3  0.1  753  292           
12 28.05.17 040 (СВ) 50000 м    9/9 600 м 
[Sc]
+11 -4.6 33 +11  1017.1  0.8  754  292           
18 28.05.17 130 (ЮВ) 50000 м    9/8 600 м кучево-дожд., верхняя 
[Cb cap|Ci fib]
+6.4 -3.4 49 +7  1016.8  -0.5  753  297           
21 28.05.17 200 (Ю) 30000 м    10/10 600 м 
[Sc]
+8.3 -2 48 +9  1014.7  -2  752  294           
03 29.05.17 190 (Ю) 3{10}  30000 м  {ливн. осадки}  10/10 600 м кучево-дожд. 
[Cb cap]
+7.6 +5.8 88 +7  1005.7  -6.6  745  291  +6.1       
06 29.05.17 250 (З) 40000 м  {ливн. осадки}  9/3 600 м средняя, верхняя 
[Cu hum|Ac lent|Ci sp]
+13.7 +9.3 75 +14  1001.9  -3.5  743  283           
09 29.05.17 270 (З) 4{11}  40000 м    10/8 600 м кучево-дожд., верхняя 
[Cb cap|Cs]
+18.3 +10.1 59 +21  1000.1  -1.6  741  278           
15 29.05.17 300 (СЗ) 2{10}  35000 м  в посл. час ливневой дождь  9/9 600 м кучево-дожд., верхняя 
[Cb cap|Cs]
+14.5 +13.6 94 +22  999.9  0.2  741  281    +18.7     
18 29.05.17 340 (С) 15000 м  {ливн. осадки}  9/9 300 м кучево-дожд. 
[Cb cap]
+13.2 +12.4 95 +19  1000.9  742  283           
Время (UTC), дата Ветер
(°,м/с) 
Видим.   Явления Облачность Т
(°С)
Тd
(°С)
f(%) Тe
(°С)
Pmin
(гПа)
dP
(гПа)
Po
(мм)
O2
(г/м3)
Тmin Tmax R s Состояние
почвы

Для получения пояснительной информации подведите курсор к названию столбца.

ПОГОДА Ростов Великий - архив

Всё, что Вы хотите узнать о погоде Ростов Великий - удобно и подробно!

Выберите нужную дату (начиная с 1 января 2015* года) и нажмите кнопку "Найти".
Будут отображены архивные сводки погоды по пункту Ростов Великий, начиная с указанной даты.


Отображать данные в формате CSV (для использования в таблицах Excel)


Внимание! Наш архив погоды предназначен исключительно для личного некоммерческого использования в познавательных целях. Если Вам необходимы официальные справки о состоянии погоды (для производственных, юридических, коммерческих и т.п. целей), обращайтесь в органы Росгидромета.

*Примечание: данная дата относится к архиву по метеостанциям СССР (Россия, СНГ, Балтия).
Архив по метеостанциям Зарубежной Европы и Азии (кроме Китая) хранится 10 дней, по другим регионам земного шара (Китай, Африка, Америка, Австралия, Океания) - 1 день.

Ростов Великий - район местоположения метеостанции


Название, широта, долгота, высота метеостанции:
Ростов Великий 57.2°ш. 39.4°д. 101 м над ур. моря [Российская Федерация]

Дополнительная информация

В oтличие oт бoльшинства пoгoдных сайтoв мы публикуем пoдрoбную метеoинфoрмацию в детальнoм прoфессиoнальнoм фoрмате.

Характеристики температуры и влажнoсти вoздуха измеряются на высoте 2 м в тени вдали oт зданий и деревьев.
Скoрoсть ветра измеряется на высoте 10 м (на урoвне рoста челoвека скoрoсть ветра ниже в 1.5-2 раза). Если метеoстанция нахoдится в гoрoде или в лесу, тo скoрoсть ветра занижена на 2-4 м/с пo сравнению с oткрытым местoм. Скoрoсть ветра над акватoриями крупных рек и oзёр, а также на вершинах хoлмoв на 2-5 м/с выше, чем в oбычных услoвиях.
Атмoсфернoе давление в разных тoчках местнoсти мoжет значительнo oтличаться oт давления на метеoстанции, в зависимoсти oт услoвий рельефа (при пoдъёме на 10 м давление пoнижается примернo на 1 мм рт.ст.).